User: anonymous   Login
Location: Unspecified
(0.0000°N, 0.0000°E)
Time: 20:00:50
(UTC+00:00)
Language:

OBJECT BV - Orbit

View from above orbital plane
View from above orbital plane
View from above satellite
View from above satellite

Ground track
Ground track

The orbit data is extracted from the following two-line orbital elements,

1 42015U 17008BV  17144.91720228 +.00001551 +00000-0 +69489-4 0  9998
2 42015 097.4968 206.4031 0005320 311.2967 048.7810 15.22751612014805
Epoch (UTC): 24 May 2017 22:00:46
Eccentricity: 0.0005320
inclination: 97.4968°
perigee height: 494 km
apogee height: 501 km
right ascension of ascending node: 206.4031°
argument of perigee: 311.2967°
revolutions per day: 15.22751612
mean anomaly at epoch: 48.7810°
orbit number at epoch: 1480

The dashed part of the orbit path shows where the satellite is in the earth's shadow,  

DLR